Tracking 18942 objects as of 17-Jan-2018
HD Live streaming from Space Station
objects crossing your sky now

ZY 3

Track ZY 3 now!
10-day predictions
ZY 3 is classified as:


NORAD ID: 38046
Int'l Code: 2012-001A
Perigee: 506.9 km
Apogee: 511.6 km
Inclination: 97.5 °
Period: 94.7 minutes
Semi major axis: 6880 km
RCS: 5.391 m2 (large)
Launch date: January 9, 2012
Source: People's Republic of China (PRC)
Launch site: Taiyaun Space Center, China (TSC)
aabbcc
Your satellite tracking list
Your tracking list is empty




NASA's NSSDC Master Catalog

Two Line Element Set (TLE):
1 38046U 12001A   18016.76762160  .00000643  00000-0  31960-4 0  9992
2 38046  97.5128  88.6878 0003410  66.4731  46.7445 15.21236269334428
Source of the keplerian elements: AFSPC